Wichita Falls, TX

10:51 AM CDT on May 23, 2018 (GMT -0500)
Sheppard Air Force Base-Wichita Falls Municipal

Weather History for KSPS - September, 2013

Change the Weather History Date:

Monday, September 9, 2013

  Actual Average Record
Temperature  
Mean Temperature 82 °F 78 °F  
Max Temperature 96 °F 91 °F 104 °F (1940)
Min Temperature 68 °F 66 °F 52 °F (2004)
Degree Days  
Heating Degree Days 0 0  
Month to date heating degree days 0 0  
Since 1 July heating degree days 0 0  
Cooling Degree Days 17 13  
Month to date cooling degree days 186 132  
Year to date cooling degree days 2245 2077  
Growing Degree Days 32 (Base 50)    
Moisture  
Dew Point 61 °F    
Average Humidity 53    
Maximum Humidity 81    
Minimum Humidity 25    
Precipitation  
Precipitation 0.00 in 0.11 in 2.96 in (2007)
Month to date precipitation T 0.91  
Year to date precipitation 15.48 20.64  
Sea Level Pressure  
Sea Level Pressure 29.90 in    
Wind  
Wind Speed 11 mph (South)    
Max Wind Speed 22 mph    
Max Gust Speed 26 mph    
Visibility 10 miles    
Events      
T = Trace of Precipitation, MM = Missing Value Source: NWS Daily Summary

Daily Weather History Graph

Daily Weather History Graph

Search for Another Location

Airport or City:

Astronomy

Sep. 09, 2013 Rise Set
Actual Time 7:13 AM CDT 7:48 PM CDT
Civil Twilight 6:48 AM CDT 8:13 PM CDT
Nautical Twilight 6:18 AM CDT 8:43 PM CDT
Astronomical Twilight 5:48 AM CDT 9:13 PM CDT
Moon 11:22 AM CDT (9/9) 10:21 PM CDT (9/9)
Length of Visible Light 13h 25m
Length of Day
12h 35m
Waxing Crescent, 19% of the Moon is Illuminated
Sep 9
Waxing Crescent
Sep 12
First Quarter
Sep 19
Full
Sep 26
Last Quarter
Oct 4
New

Hourly Weather History & Observations

Time (CDT) Temp. Heat Index Dew Point Humidity Pressure Visibility Wind Dir Wind Speed Gust Speed Precip Events Conditions
12:52 AM 77.0 °F - 61.0 °F 58% 29.88 in 10.0 mi SSE 9.2 mph - N/A   Clear
1:52 AM 80.1 °F 81.1 °F 61.0 °F 52% 29.88 in 10.0 mi South 11.5 mph - N/A   Clear
2:52 AM 80.1 °F 81.2 °F 62.1 °F 54% 29.88 in 10.0 mi SSW 11.5 mph - N/A   Clear
3:52 AM 77.0 °F - 62.1 °F 60% 29.89 in 10.0 mi SSW 8.1 mph - N/A   Clear
4:52 AM 72.0 °F - 63.0 °F 73% 29.90 in 10.0 mi South 8.1 mph - N/A   Clear
5:52 AM 71.1 °F - 63.0 °F 75% 29.91 in 10.0 mi South 8.1 mph - N/A   Clear
6:52 AM 68.0 °F - 63.0 °F 84% 29.93 in 10.0 mi South 5.8 mph - N/A   Clear
7:52 AM 71.1 °F - 64.0 °F 78% 29.94 in 10.0 mi South 4.6 mph - N/A   Partly Cloudy
8:52 AM 77.0 °F - 64.9 °F 66% 29.95 in 10.0 mi South 8.1 mph - N/A   Clear
9:52 AM 82.0 °F 84.1 °F 66.0 °F 58% 29.95 in 10.0 mi South 9.2 mph - N/A   Clear
10:52 AM 86.0 °F 87.6 °F 64.9 °F 49% 29.96 in 10.0 mi South 11.5 mph - N/A   Clear
11:52 AM 86.0 °F 86.3 °F 62.1 °F 44% 29.95 in 10.0 mi SSE 15.0 mph 21.9 mph N/A   Clear
12:52 PM 89.1 °F 88.8 °F 60.1 °F 38% 29.94 in 10.0 mi South 10.4 mph 19.6 mph N/A   Partly Cloudy
1:52 PM 91.9 °F 90.8 °F 57.9 °F 32% 29.92 in 10.0 mi SSE 12.7 mph 24.2 mph N/A   Partly Cloudy
2:52 PM 93.9 °F 92.9 °F 57.9 °F 30% 29.89 in 10.0 mi South 15.0 mph 21.9 mph N/A   Scattered Clouds
3:52 PM 96.1 °F 94.5 °F 55.9 °F 26% 29.87 in 10.0 mi South 16.1 mph 25.3 mph N/A   Scattered Clouds
4:52 PM 95.0 °F 94.0 °F 57.9 °F 29% 29.86 in 10.0 mi SSE 11.5 mph - N/A   Scattered Clouds
5:52 PM 93.9 °F 92.6 °F 57.0 °F 29% 29.85 in 10.0 mi SSE 11.5 mph - N/A   Scattered Clouds
6:52 PM 93.0 °F 91.4 °F 55.9 °F 29% 29.85 in 10.0 mi SSE 18.4 mph - N/A   Partly Cloudy
7:52 PM 87.1 °F 85.9 °F 57.0 °F 36% 29.86 in 10.0 mi SSE 11.5 mph - N/A   Partly Cloudy
8:52 PM 86.0 °F 85.7 °F 60.1 °F 41% 29.87 in 10.0 mi SSE 11.5 mph - N/A   Partly Cloudy
9:52 PM 82.0 °F 82.4 °F 60.1 °F 47% 29.89 in 10.0 mi SSE 11.5 mph - N/A   Partly Cloudy
10:52 PM 81.0 °F 81.7 °F 61.0 °F 50% 29.90 in 10.0 mi SSE 8.1 mph - N/A   Partly Cloudy
11:52 PM 80.1 °F 81.1 °F 61.0 °F 52% 29.91 in 10.0 mi SSE 11.5 mph - N/A   Clear